User: anonymous   Login
Location: Camp Creek
(33.9000°N, 111.8167°W)
Time: 16:47:57
(UTC-07:00)
Language:

Cosmos 2322 Rocket - Orbit

View from above orbital plane
View from above orbital plane
View from above satellite
View from above satellite

Ground track
Ground track

The orbit data is extracted from the following two-line orbital elements,

1 23705U 95058B   16338.57524611 -.00000265  00000-0 -11198-3 0  9994
2 23705  71.0232  79.4370 0014672 242.0016 117.9623 14.15094134 89513
Epoch (UTC): 03 December 2016 13:48:21
Eccentricity: 0.0014672
inclination: 71.0232°
perigee height: 831 km
apogee height: 852 km
right ascension of ascending node: 79.4370°
argument of perigee: 242.0016°
revolutions per day: 14.15094134
mean anomaly at epoch: 117.9623°
orbit number at epoch: 8951

The dashed part of the orbit path shows where the satellite is in the earth's shadow,  

DLR